Portada
METAR-TAF:

METAR-TAF

Aeroports :

Hagi, Japó

latitud: 34-40N, longitud: 131-48E, altitud: 54 m

Observació

L'informe es va fer fa 16 minuts, a les 09:00 UTC
Vent 2 kt amb direcció variable
Temperatura 19°C
Humitat 88%
Pressió 1011 hPa
Visibilitat 10 km o més
Escasses núvols a una alçada de 700 ft
Núvols disperses a una alçada de 1000 ft
Cel ennuvolat a una alçada de 5000 ft

METAR: RJOW 130900Z VRB02KT 9999 FEW007 SCT010 BKN050 19/17 Q1011

Hora: 18:16 (09:16 UTC)


TAF: manca

Observacions i pronòstics meteorològics de més de 4000 aeroports (METAR i TAF).

Les estacions disponibles són els punts grocs i vermells al mapa.

Posi el ratolí al punt desitjat per veure el nom de l'estació.

Feu clic per veure les observacions i els pronòstics meteorològics.

Per canviar el mapa: feu clic els botons verds amb una creu de color negre per apropar; al botó verd amb un guió per allunyar la imatge; o en les fletxes verdes per a mapes adjacents.


METAR-TAF: